Location: Shades State Park
(39.9310°N, 87.0690°W)
Time: 16:43:57
(UTC-04:00)

ISS - Visible Passes

Search period start: 18 April 2014 00:00
Search period end: 28 April 2014 00:00
Orbit: 414 x 419 km, 51.6° (Epoch: 18 April)

Date Brightness Start Highest point End Pass type
(mag) Time Alt. Az. Time Alt. Az. Time Alt. Az.
18 Apr -0.9 21:28:30 10° NNW 21:30:39 16° NNE 21:32:49 10° ENE visible
18 Apr -1.0 23:04:35 10° NW 23:06:10 25° NW 23:06:10 25° NW visible
19 Apr -2.4 22:16:20 10° NW 22:19:31 38° NNE 22:19:43 38° NE visible
20 Apr -1.7 21:28:06 10° NNW 21:31:00 26° NNE 21:33:15 14° ENE visible
20 Apr -1.0 23:04:39 10° WNW 23:06:09 23° WNW 23:06:09 23° WNW visible
21 Apr -3.4 22:16:06 10° NW 22:19:28 79° SW 22:19:41 73° SSE visible
22 Apr -3.0 21:27:39 10° NW 21:30:59 59° NE 21:33:15 18° ESE visible
22 Apr -0.4 23:05:25 10° W 23:06:09 13° WSW 23:06:09 13° WSW visible
23 Apr -1.7 22:16:11 10° WNW 22:19:01 26° SW 22:19:43 24° SSW visible
24 Apr -2.5 21:27:20 10° WNW 21:30:34 46° SW 21:33:20 13° SSE visible
26 Apr -0.7 21:27:36 10° W 21:29:45 16° SW 21:31:54 10° S visible
